Location: Boca do Mato
(22.9085°S, 43.2930°W)
Time: 21:49:51
(UTC+00:00)

Hubble Space Telescope - Pass Details

Date: 14 July 2020
Orbit: 536 x 540 km, 28.5° (Epoch: 10 August)

Event Time Altitude Azimuth Distance (km) Brightness Sun altitude
Exits shadow 07:07:23 20° 82° (E) 1,298 3.3 -33.0°
Drops below altitude 10° 07:08:51 10° 93° (E) 1,797 4.2 -32.7°
Sets 07:11:14 0° 101° (E) 2,691 5.3 -32.1°
